www.weatherandclimate.eu
WEATHER в Сухане
Time
(UTC), date
09 23.11
12 23.11
15 23.11
18 23.11
21 23.11
00 24.11
12 24.11
15 24.11
18 24.11
21 24.11
00 25.11
03 25.11
06 25.11
09 25.11
12 25.11
15 25.11
18 25.11
21 25.11
00 26.11
03 26.11
06 26.11
09 26.11
12 26.11
15 26.11
18 26.11
21 26.11
00 27.11
03 27.11
06 27.11
09 27.11
12 27.11
15 27.11
18 27.11
21 27.11
00 28.11
03 28.11
06 28.11
09 28.11
12 28.11
15 28.11
18 28.11
21 28.11
00 29.11
03 29.11
06 29.11
09 29.11
12 29.11
15 29.11
18 29.11
21 29.11
00 30.11
03 30.11
06 30.11
Wind
(dir.,m/s)
Visibility Phenomena Clouds Т
(С)
Тd
(С)
f
(%)
Тe
(С)
Тes
(С)
Comfort P
(hPa)
Po
hPa)
Тmin
(С)
Tmax
(С)
R
(mm)
R24
(mm)
S
(sm)
0 50 km 3/0
[Ac trans]
-23.2 -25.0 85 -23 -23 very cold 1011.8 1001.1
0 50 km 3/0
[Ac trans]
-27.1 -28.8 85 -27 -27 very cold 1013.0 1002.3 -19.1
0 50 km ясно -30.3 -32.1 84 -30 -30 very cold 1014.7 1003.8
0 50 km ясно -32.2 -33.9 85 -32 -32 risk of frostbite 1016.2 1005.3
0 20 km slightsnow 10/0
[As op]
-29.0 -30.7 85 -29 -29 very cold 1018.2 1007.3
0 20 km slightsnow 10/0
[As op]
-26.9 -28.6 85 -27 -27 very cold 1019.3 1008.6 -32.8 0.2 22
0 50 km 6/0
[Ac trans]
-22.8 -24.6 85 -23 -23 very cold 1025.0 1014.2 -22.5 0.0
0 50 km 6/0
[Ac trans]
-24.3 -26.1 85 -24 -24 very cold 1016.0 1015.2
0 50 km 6/0
[Ac trans]
-26.1 -27.9 85 -26 -26 very cold 1027.2 1016.4
SW 1 20 km slightsnow 10/0
[Ac trans Cs]
-21.3 -23.1 85 -24 -24 very cold 1027.6 1017.0
0 50 km {snow} 8/0
[Ac trans Cs]
-21.8 -23.6 85 -22 -22 very cold 1028.5 1017.9 -26.3 0.0 22
W 1 50 km 10/0
[As op]
-18.5 -20.4 85 -21 -21 very cold 1028.6 1018.0
W 1 50 km 6/0
[Ac trans Cs]
-19.3 -21.2 85 -22 -22 very cold 1029.6 1019.0
W 1 50 km 3/0
[Ac trans]
-22.4 -24.2 85 -26 -26 very cold 1030.6 1020.0
W 1 50 km 3/0
[Ac trans]
-27.9 -29.6 85 -32 -32 risk of frostbite 1031.6 1020.4 -18.0
W 1 50 km 4/0
[Ac trans Ci fib]
-30.0 -31.7 85 -34 -34 risk of frostbite 1032.0 1020.8
W 1 50 km 6/0
[Ac trans Ci fib]
-30.9 -32.5 86 -35 -35 risk of frostbite 1032.4 1021.2
0 50 km 3/0
[Ci fib]
-30.5 -32.1 86 -31 -31 risk of frostbite 1032.4 1021.2
0 50 km 5/0
[Ac trans Ci fib]
-29.3 -31.1 84 -29 -29 very cold 1032.3 1021.1 -33.0 22
0 50 km 5/0
[Ac trans Cs]
-31.1 -32.8 85 -31 -31 risk of frostbite 1031.9 1020.7
0 50 km 3/0
[Cs]
-32.3 -33.9 86 -32 -32 risk of frostbite 1031.9 1020.7
0 50 km 3/0
[Cs]
-33.2 -35.6 79 -33 -33 risk of frostbite 1032.3 1021.4
0 50 km 9/0
[Ac trans]
-31.5 -33.8 80 -32 -32 risk of frostbite 1033.2 1022.0 -29.1
0 50 km 10/0
[Ac und]
-28.7 -30.5 84 -29 -29 very cold 1032.7 1021.5
0 50 km 10/0
[Ac und]
-27.5 -29.3 85 -28 -28 very cold 1032.7 1021.8
0 50 km 10/0
[Ac und]
-24.5 -26.3 85 -25 -25 very cold 1033.3 1022.4
0 50 km 10/0
[Ac und]
-23.2 -25.0 85 -23 -23 very cold 1034.1 1023.2 -31.5 22
0 50 km 10/0
[Ac As]
-22.4 -24.2 85 -22 -22 very cold 1034.7 1024.0
0 50 km 10/0
[Ac As]
-21.5 -23.3 85 -22 -22 very cold 1034.9 1024.2
0 50 km 3/0
[Ac trans]
-24.5 -26.3 85 -25 -25 very cold 1036.0 1025.1
0 50 km 4/0
[Ac trans Ci fib]
-27.9 -29.6 85 -28 -28 very cold 1037.5 1026.3 -21.2
0 50 km ясно -30.5 -32.7 81 -31 -31 risk of frostbite 1037.4 1026.2
0 50 km ясно -30.7 -32.9 81 -31 -31 risk of frostbite 1037.6 1026.4
0 50 km 3/0
[Ac trans]
-33.0 -34.7 85 -33 -33 risk of frostbite 1038.1 1026.7
0 50 km 3/0
[Ac trans]
-33.6 -35.3 85 -34 -34 risk of frostbite 1038.0 1026.6 -33.6 22
0 50 km 1/0
[Ac trans]
-33.2 -35.0 84 -33 -33 risk of frostbite 1037.4 1026.0
0 50 km 1/0
[Cs]
-34.1 -36.4 80 -34 -34 risk of frostbite 1036.6 1025.2
0 50 km 3/0
[Ac trans]
-34.9 -37.0 81 -35 -35 risk of frostbite 1036.6 1025.2
0 50 km 3/0
[Cs]
-34.9 -37.0 81 -35 -35 risk of frostbite 1034.1 1022.7 -33.2
0 50 km ясно -35.2 -37.4 80 -35 -35 risk of frostbite 1033.4 1022.0
0 50 km ясно -35.7 -38.0 79 -36 -36 risk of frostbite 1032.6 1021.2
0 50 km ясно -35.7 -38.0 79 -36 -36 risk of frostbite 1031.7 1020.3
0 50 km ясно -36.2 -38.4 80 -36 -36 risk of frostbite 1030.0 1018.7 -36.2 22
W 1 50 km 3/0
[Ac trans Ci fib]
-35.3 -37.7 79 -40 -40 risk of frostbite 1028.4 1017.1
0 50 km 4/0
[Ci fib]
-35.2 -37.4 80 -35 -35 risk of frostbite 1026.7 1015.4
0 50 km 9/0
[Cs]
-33.4 -35.6 80 -33 -33 risk of frostbite 1025.8 1014.5
0 50 km 10/0
[Cs]
-30.1 -31.9 84 -30 -30 very cold 1024.3 1013.3 -33.4
0 50 km 3/0
[Cs]
-30.1 -32.5 79 -30 -30 very cold 1022.7 1011.7
W 1 50 km 8/0
[Cs]
-29.2 -31.5 80 -33 -33 risk of frostbite 1020.7 1009.8
S 1 20 km slightsnow 10/0
[Ac trans Cs]
-25.5 -27.3 85 -29 -29 very cold 1018.9 1008.2
S 1 20 km slightsnow 10/0
[Ac trans Cs]
-22.4 -24.2 85 -26 -26 very cold 1016.7 1006.2 -30.5 0.6 22
SW 3 50 km {snow} 10/0
[Ac trans Cs]
-12.6 -14.6 85 -19 -19 very cold 1015.0 1004.9
SW 3 50 km {snow} 10/0
[Ac As Cs]
-12.0 -14.0 85 -18 -18 very cold 1013.8 1003.7
Weather station location Сухана (Yakutia, Russia): latitude 68.62 longitude 118.30 Height above sea level 77 m.
The archive shows weather in в Сухане for the last week. For the whole month and for the previous months, starting from January 2011, you can obtain archived data by selecting the date range of interest from the drop-down list and clicking the "Find!".
*Decide who are you:
Attention! The time in the tables is UTC. To get the local time, you must add an amendment that is equal to 9 h.
See also the weather archive in nearby cities and at nearby weather stations:
Partners of our site:
Column explanations:
  • Wind - indicated wind speed in m/s - average for 10 minutes, gusts in time and between periods (in brackets) and the direction from which the wind blows: N - North, NE - North-East, E - East, SE - South-East , S - South, SW - South-West, W - West, NW - North-West.
  • Visibility - horizontal visibility range in meters or kilometers. When visibility is from 1 to 10 km in the absence of precipitation, haze is usually observed, and when visibility is reduced to 1 km or less, fog is observed. In dry weather, visibility may be reduced by smoke, dust, or haze.
  • Phenomena - atmospheric phenomena observed during the period or in the last hour before the period are indicated; curly brackets indicate phenomena observed between periods (1-3 hours before the period); square brackets indicate hail or ice deposits with their diameter in mm.
  • Clouds - are through slash total and lower clouds in points, and the height of the lower border of the cloud in meters; square brackets contain cloud forms: Ci - Cirrus, Cs - Cirrostratus, Cc - Cirrocumulus, Ac - Altocumulus, As - Altostratus, Sc - Stratocumulus, Ns - Nimbostratus, Cu - Cumulus, Cb - Cumulonimbus. For more information about cloud classification, see the cloud Atlas (PDF).
  • T - Air temperature - temperature measured at a height of 2 m above the ground.
  • Td - Dew point temperature - the temperature is lowered to that contained in the air, the water vapor reaches saturation.
  • f - Relative humidity measured at a height of 2 m above the ground.
  • Te - Effective temperature is the temperature that a seasonally dressed person feels in the shade. Characteristic of stuffy weather. The calculation takes into account the influence of air humidity and wind speed on a person’s heat.
  • Tes - Effective sun temperature - the temperature that a person feels, adjusted for solar heating. Characteristics of the sultry weather. Depends on the height of the sun above the horizon, cloud cover and wind speed. At night, in cloudy weather, as well as in winds of 12 m/s or more, the correction is zero.
  • P - Atmospheric pressure - atmospheric pressure reduced to sea level.
  • Po - Atmospheric pressure - atmospheric pressure measured at the station level.
  • Tmin - Minimum temperature - minimum air temperature at a height of 2 m above the ground.
  • Tmax - Maximum temperature - maximum air temperature at a height of 2 m above the ground.
  • R - Precipitation - The amount of precipitation over a period of time, mm. When you hover over the number, the time period for which the specified amount of precipitation has fallen.
  • R24 - Количество осадков - The amount of precipitation in 24 hours, mm.
  • S - Snow cover - The height of the snow cover. When you hover the mouse over the number - the state of the snow cover and the degree of coverage in points.